TimeEDT,TemperatureF,Dew PointF,Humidity,Sea Level PressureIn,VisibilityMPH,Wind Direction,Wind SpeedMPH,Gust SpeedMPH,PrecipitationIn,Events,Conditions,WindDirDegrees,DateUTC
12:54 AM,54.0,52.0,93,30.05,10.0,West,5.8,-,N/A,,Clear,280,2013-09-04 04:54:00
1:54 AM,52.0,51.1,97,30.06,10.0,WSW,3.5,-,N/A,,Clear,240,2013-09-04 05:54:00
2:21 AM,51.8,51.8,100,30.07,10.0,NW,6.9,-,N/A,,Partly Cloudy,310,2013-09-04 06:21:00
2:39 AM,53.6,53.6,100,30.07,10.0,WNW,6.9,-,N/A,,Mostly Cloudy,300,2013-09-04 06:39:00
2:54 AM,54.0,53.1,97,30.06,10.0,WNW,5.8,-,N/A,,Overcast,290,2013-09-04 06:54:00
3:54 AM,54.0,53.1,97,30.07,10.0,WNW,6.9,-,N/A,,Overcast,290,2013-09-04 07:54:00
4:54 AM,54.0,53.1,97,30.08,8.0,WNW,6.9,-,N/A,,Overcast,300,2013-09-04 08:54:00
5:54 AM,53.1,52.0,96,30.09,7.0,NW,6.9,-,N/A,,Mostly Cloudy,310,2013-09-04 09:54:00
6:06 AM,51.8,51.8,100,30.10,7.0,WNW,5.8,-,N/A,,Scattered Clouds,300,2013-09-04 10:06:00
6:36 AM,51.8,51.8,100,30.11,6.0,Calm,Calm,-,N/A,,Mostly Cloudy,0,2013-09-04 10:36:00
6:47 AM,51.8,51.8,100,30.11,4.0,Calm,Calm,-,N/A,,Scattered Clouds,0,2013-09-04 10:47:00
6:54 AM,52.0,51.1,97,30.12,4.0,Calm,Calm,-,N/A,,Mostly Cloudy,0,2013-09-04 10:54:00
7:09 AM,51.8,51.8,100,30.11,5.0,Calm,Calm,-,N/A,,Mostly Cloudy,0,2013-09-04 11:09:00
7:54 AM,53.1,52.0,96,30.12,5.0,WSW,4.6,-,N/A,,Partly Cloudy,250,2013-09-04 11:54:00
8:54 AM,55.0,53.1,93,30.13,10.0,West,4.6,-,N/A,,Clear,260,2013-09-04 12:54:00
9:54 AM,59.0,53.1,81,30.14,10.0,West,5.8,-,N/A,,Clear,270,2013-09-04 13:54:00
10:54 AM,62.1,53.1,72,30.14,10.0,WSW,10.4,-,N/A,,Partly Cloudy,250,2013-09-04 14:54:00
11:54 AM,63.0,53.1,70,30.14,10.0,West,10.4,-,N/A,,Scattered Clouds,270,2013-09-04 15:54:00
12:54 PM,64.9,53.1,65,30.13,10.0,Variable,6.9,-,N/A,,Partly Cloudy,0,2013-09-04 16:54:00
1:54 PM,66.0,52.0,60,30.12,10.0,West,9.2,-,N/A,,Clear,260,2013-09-04 17:54:00
2:54 PM,68.0,52.0,56,30.11,10.0,WNW,10.4,-,N/A,,Clear,300,2013-09-04 18:54:00
3:54 PM,69.1,51.1,53,30.09,10.0,West,9.2,-,N/A,,Clear,270,2013-09-04 19:54:00
4:54 PM,69.1,52.0,54,30.10,10.0,WNW,11.5,-,N/A,,Clear,300,2013-09-04 20:54:00
5:54 PM,68.0,52.0,56,30.09,10.0,West,10.4,-,N/A,,Clear,280,2013-09-04 21:54:00
6:54 PM,66.0,54.0,65,30.10,10.0,West,9.2,-,N/A,,Clear,260,2013-09-04 22:54:00
7:54 PM,63.0,54.0,72,30.09,10.0,WSW,6.9,-,N/A,,Clear,250,2013-09-04 23:54:00
8:54 PM,62.1,53.1,72,30.11,10.0,WSW,8.1,-,N/A,,Clear,240,2013-09-05 00:54:00
9:54 PM,62.1,52.0,70,30.11,10.0,WSW,9.2,-,N/A,,Clear,250,2013-09-05 01:54:00
10:54 PM,62.1,52.0,70,30.11,10.0,West,9.2,-,N/A,,Clear,260,2013-09-05 02:54:00
11:54 PM,62.1,53.1,72,30.10,10.0,West,9.2,-,N/A,,Clear,260,2013-09-05 03:54:00